Lapse_Rate
3.9 2.7 1.5 2.1 2.2 1.8 2.8 3.5 3.9 3.6 3.3 3.4 4.1 4.7 4.9 4.9 5.0 4.8 4.0 3.8 4.3 4.2 4.3 5.1 5.1 4.8 5.3 5.5 5.1 5.1 4.8 5.5 5.2 6.0 6.5 6.3 5.8 6.0 6.6 6.6 6.6 6.4 6.3
3.9 2.4 1.8 1.2 2.0 3.5 3.5 3.5 3.3 2.9 3.3 3.5 3.5 3.6 3.7 4.1 3.9 3.5 3.7 3.8 3.9 4.1 4.1 4.3 5.2 5.2 5.3 5.3 5.4 4.9 5.8 5.4 5.4 6.5 8.1 8.1 8.1 6.2 6.1 7.0 7.0 6.8 6.6
4.9 4.3 3.9 2.4 2.1 2.2 2.0 2.8 3.3 3.6 3.6 3.3 4.2 4.7 4.8 4.8 5.4 5.9 5.8 5.8 5.0 4.7 4.3 4.4 4.9 5.0 4.8 5.3 5.6 5.4 5.6 7.0 6.1 5.3 7.7 7.6 7.7 8.2 6.5 5.8 7.1 7.4 7.4
5.2 4.8 4.4 3.9 3.0 2.6 2.6 3.4 3.7 4.3 4.1 4.1 4.9 4.7 5.2 5.4 5.5 5.1 5.5 5.1 4.4 4.7 4.8 4.7 4.9 5.2 5.4 5.2 5.2 5.9 5.4 6.0 7.9 6.6 5.6 5.6 6.2 8.0 7.9 6.8 6.8 7.2 7.6
4.5 4.5 4.2 3.9 3.5 3.4 3.6 4.1 4.8 4.7 4.4 4.2 4.0 4.2 4.2 4.6 4.8 4.7 4.6 5.1 4.9 4.3 3.9 3.9 4.4 5.1 5.6 5.4 4.9 5.2 5.0 6.6 6.1 8.1 7.7 5.9 6.3 6.8 8.2 8.0 8.4 7.9 8.0
4.4 4.6 4.3 5.1 5.2 4.9 4.6 4.5 4.8 4.6 4.2 4.1 3.9 3.5 3.4 3.4 4.2 4.6 5.0 5.3 5.2 4.9 4.0 3.3 3.6 3.5 3.7 3.7 4.0 4.0 5.6 6.4 7.1 6.8 7.0 6.9 7.7 8.3 8.5 8.3 8.1 8.6 9.1
5.1 5.4 5.7 6.0 5.7 5.2 4.4 4.6 4.4 4.2 3.6 3.7 3.5 3.6 3.9 4.3 5.6 6.2 6.8 6.5 6.6 6.2 4.6 3.8 3.8 3.9 3.8 4.3 5.6 6.4 6.9 7.3 6.4 5.3 5.0 4.6 5.1 4.9 4.5 5.0 6.5 7.9 9.1
5.5 5.8 5.9 5.9 5.8 5.4 5.3 5.2 4.7 4.1 4.0 4.4 4.7 4.7 5.6 6.6 6.9 7.0 7.0 6.4 5.8 5.1 3.7 4.0 4.2 4.8 5.3 6.2 6.9 6.1 6.1 5.2 4.4 3.9 3.5 3.1 3.5 4.7 5.5 5.9 6.6 7.6 8.6
6.0 6.4 6.5 6.4 6.4 5.5 5.5 5.1 5.1 5.6 6.2 6.0 5.4 5.7 6.3 6.5 6.7 6.6 6.2 5.7 4.8 4.4 4.7 5.6 6.5 7.2 7.8 7.0 6.1 5.3 4.9 5.2 5.9 5.8 5.8 6.2 7.0 6.9 7.1 7.6 8.1 8.3 8.1
7.0 7.2 7.2 7.0 6.8 6.7 7.2 6.4 6.8 6.8 6.6 6.5 6.1 6.4 6.6 7.0 6.6 5.6 5.4 5.4 5.1 5.6 6.7 7.9 7.9 7.8 8.4 8.0 7.9 7.5 7.0 6.9 7.1 7.4 7.4 7.7 8.4 8.2 8.1 8.5 9.3 9.3 8.8
7.8 7.9 7.7 7.7 7.4 7.2 7.2 6.6 6.4 6.3 6.5 6.3 5.8 6.0 6.4 6.1 5.6 5.3 5.4 5.4 5.8 7.1 7.6 7.9 8.4 7.8 7.2 8.4 9.1 8.8 8.9 8.6 8.5 8.3 8.3 8.4 8.3 8.6 9.1 9.3 9.5 9.4 9.4
7.5 7.5 7.3 6.8 6.7 6.9 7.4 7.3 6.7 6.4 6.3 5.7 5.9 6.1 5.6 5.3 5.3 6.0 6.5 6.9 8.0 7.6 7.8 7.2 6.1 6.0 6.8 8.6 8.6 8.1 7.7 7.7 7.8 8.1 8.2 8.3 8.8 9.0 9.3 9.3 9.3 9.4 9.5
7.2 7.7 7.3 7.0 7.0 7.3 7.5 6.6 6.1 6.0 5.8 6.3 6.5 6.2 5.5 5.5 5.7 6.2 5.9 6.6 6.4 6.4 6.5 6.4 7.7 8.0 7.6 7.5 7.4 7.4 7.5 7.7 7.8 7.7 7.6 7.7 7.9 8.6 9.3 9.3 9.3 9.5 9.6
7.3 7.1 7.2 7.7 8.5 8.6 7.5 6.8 6.6 6.5 6.7 6.8 6.7 6.4 6.1 6.4 6.5 6.4 6.8 7.0 7.5 7.8 8.3 7.9 7.7 7.1 7.1 7.5 7.6 7.5 7.3 7.3 7.2 7.0 7.3 7.8 8.2 8.9 9.2 9.3 9.4 9.5 9.4
7.1 7.7 8.2 8.4 8.2 7.1 6.6 6.5 6.2 6.8 7.3 7.1 7.2 7.3 7.1 7.5 7.6 7.4 7.8 7.9 7.8 7.6 7.2 6.3 6.5 6.4 6.6 7.1 6.5 7.0 7.2 7.2 7.3 7.5 7.8 8.1 7.8 7.2 7.7 9.1 9.4 9.3 9.0
7.3 8.1 8.2 6.9 6.6 6.4 5.9 5.8 6.4 6.7 7.3 7.7 7.6 7.4 6.5 6.8 6.9 7.4 7.4 7.8 7.7 7.5 7.0 6.8 6.5 6.6 6.9 5.6 6.0 6.6 7.8 7.6 7.4 8.4 8.7 8.5 7.9 8.5 7.4 7.1 7.2 7.9 8.3
7.5 7.1 6.7 6.5 5.8 5.5 5.5 5.9 6.4 6.7 7.2 7.3 7.9 7.8 7.0 7.5 7.8 7.5 7.3 6.7 6.8 7.0 7.0 7.0 6.9 6.7 6.6 6.1 6.5 6.6 7.4 7.9 8.6 8.8 9.0 9.3 9.5 8.8 9.2 8.3 7.2 7.3 7.8
6.2 6.1 6.3 5.7 5.1 5.3 5.9 6.2 7.0 7.8 7.6 8.0 8.0 8.3 7.7 7.5 7.1 7.0 6.8 6.7 6.8 6.8 7.0 6.9 6.9 7.0 7.1 6.3 6.4 6.6 7.7 8.8 9.1 8.7 9.2 9.1 8.5 7.7 7.2 7.9 8.2 8.9 8.9
6.4 6.8 5.8 5.1 5.3 5.9 6.5 6.9 7.6 8.3 8.4 7.9 7.8 7.9 7.3 7.1 6.9 6.7 6.4 6.7 6.9 7.1 7.2 7.3 7.4 7.5 7.2 7.0 6.8 7.4 8.9 8.9 8.2 9.0 8.8 8.9 8.1 7.8 7.6 7.7 7.6 8.5 9.0
6.8 6.2 5.5 5.1 5.9 6.9 6.7 7.7 8.2 7.0 7.1 8.0 8.1 7.5 6.5 6.6 6.6 6.2 6.5 6.8 7.1 7.2 7.2 7.0 7.5 7.3 7.3 6.9 6.9 8.1 8.9 8.6 8.8 9.0 9.2 8.7 7.9 7.2 7.3 7.6 7.8 8.2 8.8
6.2 5.6 5.2 5.5 6.3 7.0 7.4 7.9 8.0 7.5 7.8 8.3 7.2 6.8 6.5 6.3 6.3 6.3 6.8 7.2 7.4 6.8 6.2 6.1 6.7 7.3 7.4 6.8 7.4 7.7 8.6 8.6 8.6 8.8 8.9 8.4 7.5 7.4 7.3 7.8 7.6 7.5 7.4
6.0 5.5 5.2 5.7 6.4 7.0 7.4 8.0 8.1 8.1 7.8 6.9 6.7 6.6 6.4 6.2 6.2 6.6 7.3 7.6 7.7 7.2 6.6 6.5 7.5 8.8 7.8 7.6 7.5 7.9 8.2 8.8 8.1 8.1 8.2 7.9 7.1 7.3 7.2 7.1 6.5 6.1 5.8
6.6 5.7 5.3 5.6 6.4 7.0 7.4 7.4 7.8 7.2 6.7 6.6 6.7 6.5 6.3 6.2 6.5 6.9 7.4 7.8 8.0 7.9 8.2 8.5 8.6 8.8 9.1 9.3 8.4 7.8 8.5 8.1 7.8 7.8 7.4 6.8 6.4 6.5 6.9 6.6 5.8 5.4 6.0
6.2 5.9 5.9 6.1 6.2 6.9 7.1 7.2 6.6 6.2 6.6 6.8 6.5 6.6 6.5 6.4 6.8 7.1 7.8 7.9 8.5 8.6 8.6 8.6 8.6 8.7 9.1 9.2 9.1 9.0 9.1 8.5 7.8 7.2 7.4 6.3 5.9 6.6 6.5 6.4 6.2 6.0 5.7
6.3 6.2 6.2 6.1 6.3 7.0 6.9 6.8 6.7 6.3 6.6 6.2 6.3 6.6 6.4 6.1 6.4 6.8 7.4 7.6 8.0 7.8 8.5 8.8 8.9 8.6 8.6 8.8 8.5 8.3 8.0 7.8 6.9 6.9 6.5 6.1 6.2 6.6 6.7 6.6 6.4 6.5 6.2
6.7 6.5 6.4 6.5 6.5 6.6 6.1 6.4 6.4 6.1 6.2 6.2 6.4 6.0 6.0 6.1 6.4 6.8 6.8 6.5 6.6 7.1 7.9 8.1 8.6 9.0 9.1 8.6 8.4 7.3 6.9 6.7 6.0 6.3 5.9 5.6 5.7 6.0 6.7 7.0 6.4 6.5 6.2
Wind_Speed
3 4 4 3 5 6 7 9 8 5 2 2 3 2 3 4 4 6 8 12 14 15 15 14 14 13 10 12 12 10 11 9 8 5 8 9 9 9 8 9 8 6 4
6 6 5 1 2 2 3 3 6 7 3 2 1 2 3 4 5 9 11 11 12 14 14 14 12 11 11 13 14 13 10 9 9 8 7 7 7 8 9 8 7 8 5
5 7 10 10 10 10 9 7 6 6 6 5 4 4 3 3 4 9 10 14 18 18 15 15 13 12 11 12 14 14 16 12 10 14 9 6 10 6 5 10 8 7 5
9 10 11 12 11 9 9 9 10 11 9 10 8 8 6 7 6 8 8 10 16 16 15 14 13 11 10 13 13 12 14 13 13 7 11 9 6 9 10 5 7 7 6
10 9 9 10 11 10 10 9 9 9 10 8 7 5 6 5 6 8 12 12 11 14 13 13 12 10 9 11 13 13 12 11 10 11 7 9 6 4 9 11 6 5 5
11 11 10 10 9 7 8 7 8 7 8 8 6 7 10 11 11 13 12 11 11 10 11 11 7 4 3 2 1 2 1 3 3 2 2 2 5 7 5 6 6 8 8
11 11 10 8 9 10 9 8 9 8 10 11 12 12 10 10 13 14 11 14 11 10 7 3 2 4 7 8 8 7 6 5 4 4 3 4 4 2 1 2 3 5 7
6 5 5 6 7 8 9 8 11 14 14 13 12 9 9 8 10 12 11 11 10 7 1 5 7 7 8 6 6 4 3 6 5 6 4 2 1 2 2 1 3 6 8
6 8 9 8 8 9 9 11 11 10 9 10 8 8 8 11 12 14 13 10 8 2 4 4 4 4 4 4 5 4 4 3 2 2 3 3 4 4 5 6 7 7 10
8 12 12 12 10 8 10 9 9 9 9 9 7 7 9 11 12 12 12 10 4 2 1 2 4 3 3 1 2 2 3 4 4 5 8 9 7 8 8 8 8 9 10
8 10 10 11 10 7 9 9 8 8 9 8 6 9 10 11 10 9 9 6 1 1 5 5 6 8 8 7 5 3 4 5 4 5 6 8 8 7 7 7 9 9 10
9 9 8 8 8 9 11 11 12 11 10 8 9 10 10 9 7 5 4 4 6 8 8 8 6 6 6 7 5 3 3 4 6 7 8 10 7 10 9 7 10 10 11
11 8 9 10 10 12 13 13 14 12 9 8 10 9 6 4 5 5 7 7 7 7 7 6 8 8 6 5 5 5 6 7 8 9 9 9 8 9 9 10 11 11 11
7 8 9 10 11 12 13 13 13 11 10 10 9 6 2 2 3 2 4 4 4 5 6 8 7 5 6 6 7 8 8 9 9 10 10 11 11 12 12 12 13 12 11
8 10 10 11 12 13 14 15 15 13 11 9 8 5 4 3 2 4 5 5 5 5 7 5 5 5 5 5 8 9 10 11 12 12 12 12 14 18 16 11 13 13 11
7 9 10 11 12 14 14 14 13 11 10 10 8 5 5 6 7 7 6 8 8 7 5 5 5 7 5 9 11 12 12 13 13 13 13 13 16 15 17 18 19 16 13
8 9 9 11 11 11 11 11 11 8 8 7 5 2 3 4 7 6 6 6 5 5 6 6 7 8 7 11 15 15 11 11 12 13 13 13 11 14 13 15 17 17 20
7 7 7 9 11 12 11 10 9 9 6 7 7 8 8 7 7 6 7 7 6 7 7 8 7 8 8 13 16 16 12 11 12 13 13 13 14 12 13 13 13 15 15
7 6 8 10 10 11 10 8 7 9 6 7 6 6 6 7 7 8 8 7 7 8 7 7 9 10 10 14 16 14 11 12 13 12 11 12 13 17 19 15 14 16 16
6 8 9 9 10 11 11 9 8 6 5 5 7 5 5 6 7 7 7 7 7 7 6 9 9 11 10 14 15 14 9 11 10 12 12 14 14 18 20 12 13 14 15
6 5 6 8 10 10 8 7 6 4 3 6 5 4 5 6 6 6 6 7 7 7 7 8 7 9 10 10 16 17 10 9 10 10 10 9 14 17 13 15 12 13 14
7 7 7 8 8 5 5 7 7 5 5 4 4 5 5 5 4 6 6 7 7 8 8 8 8 7 9 12 15 18 16 16 11 11 9 7 14 16 15 11 14 16 12
8 7 7 9 7 7 6 10 9 5 4 4 5 5 5 4 5 6 7 6 7 7 8 8 9 9 9 9 16 16 16 17 11 7 11 11 13 14 9 11 14 11 7
9 8 8 9 9 8 8 9 6 3 3 4 4 4 5 6 6 4 5 6 7 7 8 9 10 10 9 10 11 10 11 14 8 10 5 7 8 7 7 8 8 7 7
10 8 9 10 10 9 8 6 5 3 4 3 3 4 4 5 5 4 5 6 5 6 8 8 9 9 10 10 15 13 10 8 8 7 4 5 7 8 8 8 8 7 8
13 11 10 10 10 8 8 6 5 4 3 4 3 3 4 4 4 5 6 5 7 9 10 12 10 9 14 18 17 18 16 15 13 4 5 6 6 7 8 9 8 8 10
Wind_Direction
349 329 323 221 198 200 200 205 213 227 271 304 305 312 309 323 304 305 297 280 276 272 264 263 264 254 243 240 234 235 237 232 228 230 240 247 239 237 238 220 214 228 226
40 12 8 1 209 252 261 325 8 23 3 315 339 331 314 300 299 309 305 297 282 275 263 258 260 254 251 248 244 231 233 239 215 226 249 260 229 225 225 225 217 207 211
36 31 27 30 25 27 23 25 25 30 33 18 359 346 315 308 326 335 328 325 319 310 295 283 272 270 259 256 248 240 233 238 225 221 226 239 250 252 189 207 217 210 196
11 19 25 32 31 30 43 56 67 65 44 33 27 12 347 330 332 320 311 308 306 307 307 300 290 279 271 261 258 252 245 240 246 227 234 246 274 243 250 192 204 188 216
6 27 41 58 56 52 52 54 52 41 28 26 21 8 353 338 323 318 316 312 310 311 310 305 296 287 281 276 273 267 252 245 241 236 227 224 220 225 247 253 202 221 242
37 52 66 68 55 42 39 37 27 22 17 12 9 8 8 353 342 339 333 328 323 317 311 307 304 314 325 326 335 56 304 265 208 180 175 269 237 219 219 253 252 268 282
47 53 52 42 29 21 15 10 3 7 10 7 11 6 351 343 332 329 324 317 310 308 311 321 52 76 84 83 81 68 57 56 52 58 57 44 34 41 80 170 250 263 284
56 58 33 10 8 10 8 356 1 4 2 360 352 343 336 332 328 322 311 300 304 302 224 131 114 101 100 93 83 76 74 69 51 45 45 74 175 231 244 255 275 291 282
3 351 343 349 357 360 359 1 356 343 337 333 332 324 326 321 313 309 308 309 308 229 153 117 115 141 148 148 133 127 118 127 143 199 222 228 240 229 238 245 247 250 282
346 338 336 338 337 341 352 330 325 315 309 309 300 303 311 314 317 317 315 317 307 150 140 352 335 335 342 284 245 185 181 217 226 225 226 226 231 234 235 240 246 250 262
319 314 323 328 328 309 309 307 303 301 304 315 310 312 323 329 335 335 341 353 92 140 334 359 15 11 6 340 327 327 296 273 273 253 247 250 249 254 255 258 264 266 265
323 331 336 335 327 323 327 341 340 329 334 328 320 327 331 341 352 4 29 37 27 39 24 18 10 339 306 286 307 300 301 295 290 286 280 279 283 279 276 273 272 271 270
327 343 344 337 335 335 340 339 336 332 326 319 318 325 338 15 53 52 58 59 43 19 1 333 301 310 319 332 340 325 315 306 298 293 289 288 283 282 280 276 275 272 270
315 325 331 329 328 345 345 339 337 335 322 319 322 326 346 110 76 5 356 355 350 308 320 337 327 336 335 331 330 325 316 306 297 294 290 289 286 285 285 281 279 278 275
329 325 322 342 345 343 337 334 329 325 327 322 320 314 236 274 338 303 315 299 295 299 306 311 314 327 329 344 336 322 312 306 303 301 297 293 292 289 284 283 279 276 269
309 315 336 349 345 338 333 330 326 331 333 327 317 317 339 333 343 289 278 307 309 320 330 336 331 328 329 344 335 325 311 305 302 299 297 295 291 284 282 277 273 273 277
317 334 344 338 332 330 326 325 327 334 336 339 343 349 308 317 335 353 352 348 344 336 333 332 331 327 328 328 322 317 305 302 302 300 297 296 292 288 287 287 284 277 269
312 322 330 329 341 335 329 327 327 326 321 350 353 353 349 348 360 357 346 341 339 337 336 330 331 324 321 323 322 318 305 302 300 295 294 295 293 291 286 281 275 273 270
306 333 341 339 331 325 324 316 311 341 324 358 357 357 358 346 345 345 344 341 333 331 329 329 326 322 318 324 321 318 313 305 301 298 294 292 289 285 284 284 281 286 283
341 332 332 320 316 325 318 321 309 322 320 357 320 1 359 340 341 340 337 333 328 324 330 326 323 317 314 318 322 322 314 307 308 304 299 290 286 286 281 285 295 290 288
299 306 309 307 311 313 321 331 339 338 285 321 338 353 352 339 338 335 336 330 326 326 323 315 313 312 321 318 322 326 318 316 311 309 309 303 303 300 306 310 297 292 299
310 316 308 303 299 293 321 325 323 318 320 321 332 345 343 340 330 331 332 333 328 321 318 318 323 330 324 322 324 324 323 317 314 307 304 314 332 321 316 313 316 318 309
297 293 279 281 275 285 291 305 305 308 313 318 331 340 338 335 325 319 328 327 330 327 329 331 331 334 336 330 329 317 318 324 314 316 318 335 331 326 319 326 334 336 332
295 291 277 277 284 287 298 294 296 300 290 311 328 334 330 328 323 316 323 325 330 333 332 331 332 333 333 338 333 337 333 326 326 327 342 344 333 330 339 346 346 344 340
294 291 276 279 283 293 295 284 277 271 282 301 310 327 329 328 324 325 320 326 331 335 334 336 333 336 335 337 337 346 337 340 341 330 347 357 360 2 1 359 352 350 352
308 298 280 276 283 291 292 285 268 261 268 288 304 324 322 329 328 331 331 337 337 342 346 346 349 338 335 338 350 351 350 1 356 3 7 5 5 4 359 357 356 1 355